Date,TemperatureHighF,TemperatureAvgF,TemperatureLowF,DewpointHighF,DewpointAvgF,DewpointLowF,HumidityHigh,HumidityAvg,HumidityLow,PressureMaxIn,PressureMinIn,WindSpeedMaxMPH,WindSpeedAvgMPH,GustSpeedMaxMPH,PrecipitationSumIn
2013-1-1,50,44,40,42,33,12,86,66,27,31.51,29.92,17,4,17,0.02
2013-1-2,42,38,32,37,26,14,88,63,41,30.21,29.99,17,4,17,0.02
2013-1-3,47,36,28,25,18,10,66,51,24,30.25,30.16,12,2,12,0.02
2013-1-4,46,35,25,23,19,14,67,51,33,30.31,30.20,27,5,27,0.00
2013-1-5,51,40,30,31,20,16,68,47,26,30.40,30.22,18,4,18,0.00
2013-1-6,54,44,33,34,30,25,76,57,41,30.23,30.08,17,4,17,0.00
2013-1-7,51,38,28,29,24,20,75,57,35,30.47,30.19,26,5,26,0.00
2013-1-8,57,37,23,36,28,18,87,70,43,30.46,30.36,9,2,9,0.00
2013-1-9,60,47,32,49,40,28,96,77,47,30.45,30.36,18,3,18,0.00
2013-1-10,63,50,37,36,32,28,74,53,32,30.58,30.45,16,3,16,0.00
2013-1-11,48,43,39,42,38,33,99,86,58,30.45,30.16,8,2,8,0.05
2013-1-12,76,55,39,61,51,39,99,88,58,30.20,30.13,8,-2,8,0.00
2013-1-13,72,62,54,62,58,54,99,88,64,30.14,30.04,10,0,10,0.00
2013-1-14,66,56,48,59,54,48,99,93,78,30.27,30.06,15,3,15,0.40
2013-1-15,48,42,38,48,42,38,99,99,97,30.30,30.12,6,2,6,1.63
2013-1-16,48,42,37,48,41,37,99,97,88,30.13,29.96,13,2,13,0.83
2013-1-17,47,40,32,45,36,31,99,88,66,30.18,30.03,25,3,25,0.59
2013-1-18,44,34,25,33,23,14,95,64,39,30.51,30.18,23,2,23,0.37
2013-1-19,54,36,22,34,26,19,87,68,40,30.45,30.10,22,3,22,0.09
2013-1-20,56,44,34,35,28,21,76,54,30,30.12,30.01,24,5,24,0.01
2013-1-21,55,41,30,27,16,-2,67,39,21,30.11,29.88,25,6,25,0.00
2013-1-22,30,24,18,3,-7,-13,33,24,20,30.26,30.00,23,6,23,0.00
2013-1-23,36,26,17,17,0,-30,61,33,21,30.32,30.02,21,4,21,0.00
2013-1-24,33,26,18,18,2,-9,57,37,20,30.51,29.98,35,9,35,0.00
2013-1-25,24,20,16,19,8,-4,80,62,37,30.49,30.05,10,2,10,0.00
2013-1-26,43,32,23,28,21,15,88,63,50,30.43,30.04,21,5,21,0.05
2013-1-27,37,29,19,25,19,12,78,68,57,30.58,30.42,12,2,12,0.00
2013-1-28,59,43,32,47,36,25,93,78,55,30.45,30.18,13,2,13,0.14
2013-1-29,77,61,53,54,49,46,91,67,43,30.20,30.03,16,5,16,0.14
2013-1-30,65,60,52,63,58,49,99,93,84,30.04,29.41,18,4,18,1.82
2013-1-31,52,38,29,49,24,14,90,56,37,29.96,29.45,30,9,30,1.83
2013-2-1,38,27,17,30,6,-5,83,44,24,30.37,29.81,27,7,27,0.00
2013-2-2,37,26,14,28,14,1,88,63,35,30.36,30.01,15,3,15,0.00
2013-2-3,40,34,30,28,23,16,86,64,50,30.02,29.86,27,7,27,0.00
2013-2-4,40,31,21,24,17,10,74,58,47,30.13,29.95,30,3,30,0.00
2013-2-5,56,44,30,39,32,23,77,63,49,29.98,29.90,17,5,17,0.00
2013-2-6,55,45,32,36,28,23,76,54,31,30.32,29.97,15,4,15,0.00
2013-2-7,40,36,32,33,29,24,95,75,65,30.38,30.13,8,2,8,0.00
2013-2-8,52,38,32,41,32,24,99,79,57,30.13,29.84,33,5,33,0.22
2013-2-9,51,38,28,24,16,8,63,44,21,30.37,30.07,25,6,33,0.05
2013-2-10,48,36,23,34,20,14,85,53,32,30.47,30.22,13,3,13,0.07
2013-2-11,61,49,38,51,40,15,99,77,23,30.23,29.91,31,4,31,0.09
2013-2-12,62,49,41,28,22,14,54,36,20,30.07,29.94,31,6,31,0.01
2013-2-13,45,42,38,42,35,23,99,78,48,30.03,29.65,22,3,22,0.14
2013-2-14,56,42,33,32,27,19,77,57,27,30.07,29.85,21,4,21,0.00
2013-2-15,63,45,32,40,32,25,84,64,29,30.09,29.93,17,4,17,0.02
2013-2-16,38,34,27,30,19,8,72,53,36,30.03,29.88,20,5,20,0.04
2013-2-17,34,25,19,14,1,-8,62,35,21,30.24,29.93,28,7,28,0.00
2013-2-18,56,36,18,25,13,1,60,41,21,30.35,30.16,12,3,12,0.00
2013-2-19,57,43,33,44,31,20,93,66,34,30.17,29.81,21,4,21,0.04
2013-2-20,32,32,31,13,12,11,45,43,41,30.18,30.15,15,4,15,0.00
2013-2-21,42,40,39,18,16,15,42,38,34,30.29,30.21,13,4,13,0.00
2013-2-22,39,34,30,29,23,15,79,65,41,30.34,30.14,12,3,12,0.02
2013-2-23,53,41,34,42,36,28,96,82,66,30.16,29.84,8,2,8,0.00
2013-2-24,58,47,39,43,28,16,98,52,22,30.10,29.84,20,5,20,0.00
2013-2-25,44,35,29,26,21,19,68,57,42,30.22,30.10,9,3,9,0.00
2013-2-26,41,37,30,41,31,20,99,82,54,30.19,29.65,18,4,18,0.85
2013-2-27,50,42,39,42,36,31,99,80,55,29.78,29.62,19,4,19,0.02
2013-2-28,46,39,36,33,26,24,74,62,47,29.87,29.72,26,6,26,0.00
2013-3-1,40,38,36,28,24,20,65,58,50,29.94,29.82,19,5,19,0.00
2013-3-2,36,33,30,21,18,15,58,53,47,29.95,29.87,67,6,67,0.00
2013-3-3,40,30,27,20,14,6,58,49,35,30.00,29.90,85,8,85,0.00
2013-3-4,51,36,25,16,9,3,49,34,20,30.10,29.99,55,6,55,1.11
2013-3-5,52,40,34,35,27,14,92,61,41,30.09,29.77,13,3,13,0.15
2013-3-9,63,52,39,32,29,26,65,44,26,30.36,30.26,9,3,11,0.71
2013-3-10,67,50,31,36,30,24,77,50,26,30.33,30.20,14,3,14,0.00
2013-3-11,59,51,42,52,36,23,83,59,33,30.23,29.91,17,3,17,0.00
2013-3-12,58,52,40,54,42,30,97,73,47,30.04,29.77,17,4,17,0.52
2013-3-13,50,39,31,33,26,14,77,58,34,30.18,29.99,31,7,31,0.00
2013-3-14,50,38,28,22,14,8,58,40,21,30.26,30.13,24,7,24,0.00
2013-3-15,65,45,28,37,24,11,66,44,31,30.18,29.89,14,4,14,0.00
2013-3-19,58,49,43,17,10,5,23,20,18,30.06,29.90,26,9,26,0.01
2013-3-20,57,44,30,26,11,2,57,27,19,30.10,29.81,19,5,19,0.00
2013-3-21,39,32,25,28,11,2,66,43,24,30.00,29.80,24,8,24,0.00
2013-3-22,51,35,19,18,11,6,62,39,21,30.06,29.95,21,4,21,0.00
2013-3-23,59,43,28,26,21,15,68,44,22,30.07,29.93,13,3,13,0.00
2013-3-24,44,38,33,33,26,19,97,65,36,29.98,29.67,13,3,13,0.00
2013-3-25,48,36,29,39,28,24,99,73,49,29.80,29.57,24,5,24,0.57
2013-3-26,47,39,35,30,26,24,67,60,45,30.13,29.80,22,6,22,0.00
2013-3-27,46,39,34,30,24,22,64,56,44,30.24,29.78,21,6,21,0.07
2013-3-28,52,42,35,28,23,19,65,47,32,30.29,30.21,30,6,30,0.00
2013-3-29,61,45,30,33,25,18,78,48,22,30.33,30.18,20,4,20,0.00
2013-3-30,66,48,31,36,30,24,80,52,22,30.28,30.09,11,3,11,0.00
2013-3-31,60,50,45,54,44,32,99,82,55,30.10,29.82,11,2,11,0.24
2013-4-1,63,53,42,46,40,28,84,61,46,30.05,29.87,60,6,60,0.01
2013-4-2,54,44,32,28,17,7,66,38,18,30.20,30.04,22,5,22,0.00
2013-4-3,57,44,30,20,13,6,56,31,18,30.35,30.19,22,5,22,0.00
2013-4-4,45,37,33,33,20,6,96,55,24,30.40,30.03,11,3,12,0.19
2013-4-5,65,48,34,46,35,25,99,66,23,30.07,29.93,17,4,17,0.52
2013-4-6,65,52,35,38,30,19,78,45,26,30.30,30.07,13,4,13,0.00
2013-4-7,74,56,39,47,40,26,86,57,33,30.26,30.07,11,3,11,0.00
2013-4-8,82,65,48,52,48,43,84,58,29,30.17,30.03,15,3,15,0.00
2013-4-9,88,72,54,58,53,48,85,55,30,30.20,30.06,15,3,15,0.00
2013-4-10,93,77,61,62,56,46,80,52,22,30.12,29.94,15,4,15,0.00
2013-4-11,87,73,59,62,57,54,86,61,36,29.98,29.78,21,4,21,0.00
2013-4-12,80,67,58,67,55,37,99,70,26,29.86,29.70,20,5,20,0.79
2013-4-13,75,62,50,44,34,20,64,38,15,30.04,29.86,22,6,22,0.00
2013-4-14,80,64,45,47,38,32,72,42,22,30.15,30.04,15,3,15,0.00
2013-4-15,63,57,52,55,53,48,98,86,57,30.29,30.09,18,5,18,0.24
2013-4-16,78,65,56,65,59,54,99,83,55,30.34,30.20,14,3,14,0.00
2013-4-17,82,68,59,65,61,57,95,78,51,30.27,30.16,9,2,9,0.00
2013-4-18,78,69,61,66,61,56,95,76,49,30.22,30.02,14,4,14,0.00
2013-4-19,71,65,51,67,60,39,99,85,65,30.02,29.71,26,5,26,0.46
2013-4-20,63,52,42,40,30,22,68,45,23,30.33,29.90,27,6,27,0.46
2013-4-21,60,49,36,37,32,23,77,52,36,30.54,30.33,13,4,13,0.27
2013-4-22,63,50,33,39,31,21,90,53,22,30.51,30.32,15,4,15,0.08
2013-4-23,71,57,46,49,44,37,83,62,43,30.35,30.13,25,3,25,0.00
2013-4-24,78,62,46,61,52,45,99,73,44,30.15,29.94,21,4,21,0.05
2013-4-25,71,55,38,56,32,18,78,47,15,30.35,30.11,21,2,21,2.26
2013-4-26,70,59,37,41,36,24,82,45,25,30.48,30.34,11,3,11,2.26
2013-4-27,71,59,50,51,46,40,88,63,42,30.40,30.29,26,2,26,0.00
2013-4-28,56,54,51,55,52,50,99,95,87,30.29,30.09,15,3,15,0.25
2013-4-29,71,58,51,59,54,50,99,90,65,30.15,30.02,8,2,8,0.05
2013-4-30,73,61,55,61,57,54,99,88,62,30.28,30.08,11,3,11,0.00
2013-5-1,72,61,55,59,53,41,99,77,39,30.41,30.27,15,4,15,0.00
2013-5-2,73,61,52,51,46,41,79,57,40,30.42,30.30,151,2,151,0.07
2013-5-3,67,57,47,52,48,40,98,73,54,30.37,30.25,19,5,19,0.00
2013-5-4,64,54,47,55,44,41,84,68,47,30.30,30.16,57,2,57,0.00
2013-5-5,57,53,46,100,45,26,98,71,15,30.20,23.99,57,8,57,0.27
2013-5-6,59,55,52,57,54,50,99,97,89,30.10,29.92,23,10,23,1.81
2013-5-7,60,55,49,56,54,49,99,97,85,30.00,29.92,16,3,16,0.59
2013-5-8,61,54,50,58,53,50,99,96,84,30.04,29.97,5,1,5,0.33
2013-5-9,80,52,47,54,50,47,99,94,41,30.07,30.02,8,3,8,0.00
2013-5-10,81,73,61,60,59,57,99,65,45,30.03,29.97,8,3,9,0.18
2013-5-11,67,61,60,64,60,60,99,98,87,30.01,29.92,6,1,6,0.18
2013-5-12,64,55,46,36,32,29,66,43,28,30.11,29.99,20,5,20,0.00
2013-5-13,64,52,39,43,33,24,84,53,25,30.23,30.09,19,4,19,0.00
2013-5-14,74,56,34,48,40,32,99,61,25,30.27,30.06,12,3,12,5.19
2013-5-15,92,74,52,64,56,47,88,57,28,30.08,29.91,22,4,22,0.00
2013-5-16,86,76,62,62,58,51,82,55,41,30.07,29.96,26,4,26,0.00
2013-5-17,83,71,61,68,63,57,99,78,46,30.20,30.11,8,2,8,0.04
2013-5-18,70,65,61,66,63,52,99,94,64,30.24,30.15,10,2,10,0.30
2013-5-19,63,63,63,62,62,62,97,97,97,30.20,30.18,6,3,9,0.07
2013-5-21,89,77,65,70,67,63,99,75,43,30.09,29.97,8,-21,8,0.01
2013-5-22,86,80,66,72,68,63,99,68,60,30.05,29.95,15,5,15,0.07
2013-5-23,78,68,63,70,64,61,99,88,71,30.00,29.84,18,3,18,0.30
2013-5-24,63,62,58,61,57,34,97,88,39,30.16,29.91,17,4,17,0.01
2013-5-25,69,62,55,40,34,22,55,37,17,30.27,30.20,23,5,23,0.00
2013-5-26,76,64,49,60,41,31,77,45,22,30.30,30.19,103,1,103,0.00
2013-5-27,77,68,50,58,52,39,81,56,41,30.34,30.19,8,3,8,0.00
2013-5-28,89,78,59,67,63,58,96,62,42,30.26,30.14,11,3,11,0.00
2013-5-29,92,76,62,68,64,59,95,68,34,30.25,30.17,11,3,11,3.71
2013-5-30,89,86,75,67,66,63,70,52,45,30.31,30.21,12,4,12,0.00
2013-5-31,88,81,68,69,65,62,86,61,45,30.26,30.13,13,4,13,0.00
2013-6-1,89,76,62,72,65,60,97,71,47,30.16,30.03,15,0,15,0.00
2013-6-2,81,71,66,71,67,63,99,90,70,30.06,29.97,7,1,7,0.27
2013-6-3,83,71,64,71,64,59,99,82,55,30.06,29.93,14,-10,14,0.06
2013-6-4,82,69,56,65,60,55,99,75,44,30.18,30.05,11,3,11,0.00
2013-6-5,76,68,59,67,61,54,98,81,58,30.22,30.10,9,2,9,0.01
2013-6-6,67,63,60,66,63,60,99,98,90,30.06,29.89,9,2,9,0.58
2013-6-7,74,67,64,70,65,61,99,95,85,29.91,29.71,11,2,11,0.28
2013-6-8,82,64,60,66,61,59,99,91,52,30.09,29.89,7,2,7,0.11
2013-6-9,71,68,68,68,67,66,99,96,89,30.17,30.13,12,2,12,0.18
2013-6-10,82,70,65,75,69,65,99,95,71,30.14,29.91,11,2,11,0.60
2013-6-11,73,65,33,67,64,33,99,97,81,30.00,29.92,10,2,10,0.13
2013-6-12,73,62,33,70,49,11,99,69,20,30.04,29.84,12,3,12,9.58
2013-6-13,83,72,68,72,65,63,93,80,66,29.80,29.68,41,8,41,9.90
2013-6-15,84,80,69,64,60,55,70,51,41,30.18,30.09,11,3,11,0.00
2013-6-16,87,82,76,69,68,66,76,62,53,30.12,30.05,12,3,12,0.00
2013-6-17,82,73,70,71,69,67,94,88,70,30.03,29.98,2,1,2,0.09
2013-6-18,76,70,62,71,66,62,99,89,78,30.00,29.90,13,4,13,0.35
2013-6-19,83,71,60,69,65,59,99,82,54,30.21,29.98,14,3,14,0.07
2013-6-20,81,74,65,69,66,64,96,78,63,30.33,30.26,13,3,13,0.07
2013-6-21,85,73,59,69,63,58,97,74,54,30.35,30.26,11,3,11,0.00
2013-6-22,85,72,57,69,64,56,98,76,52,30.33,30.19,11,3,11,0.06
2013-6-23,90,77,66,73,68,65,99,77,47,30.28,30.17,10,2,10,0.00
2013-6-24,90,77,66,74,70,66,99,80,46,30.27,30.14,8,2,8,0.04
2013-6-25,91,78,66,74,70,65,99,78,51,30.18,30.05,11,2,11,0.00
2013-6-26,90,75,68,75,70,66,99,84,58,30.07,29.97,15,3,15,0.81
2013-6-27,84,74,66,74,69,65,99,86,66,29.99,29.79,12,3,12,0.02
2013-6-28,90,80,70,74,67,58,94,68,44,29.83,29.62,20,4,20,0.00
2013-6-29,85,76,65,71,66,20,95,74,53,29.78,29.68,19,3,19,0.13
2013-6-30,86,75,66,74,70,65,99,86,58,29.94,29.78,11,2,11,0.40
2013-7-1,84,74,68,72,70,68,99,87,65,30.04,29.91,15,3,15,0.09
2013-7-2,75,71,69,72,70,68,99,96,90,30.23,30.04,14,3,14,1.65
2013-7-3,78,72,69,75,71,69,99,96,85,30.31,30.19,10,1,10,0.40
2013-7-4,86,75,70,77,72,69,99,91,66,30.33,30.24,13,2,13,2.53
2013-7-5,88,77,69,75,72,69,99,85,62,30.33,30.23,14,3,14,0.15
2013-7-6,88,78,68,75,71,68,99,81,55,30.30,30.18,13,2,13,0.01
2013-7-7,87,80,70,77,72,68,92,78,67,30.21,30.14,10,4,10,0.15
2013-7-8,88,80,71,74,70,67,95,74,52,30.25,30.16,7,2,7,0.13
2013-7-9,90,78,69,75,71,68,99,81,49,30.22,30.11,11,2,11,0.00
2013-7-10,91,76,70,77,72,69,99,89,58,30.14,30.01,18,2,18,2.91
2013-7-11,86,75,69,76,71,68,99,88,65,30.03,29.96,8,2,8,0.38
2013-7-12,77,70,67,68,66,64,99,89,68,30.14,29.97,17,4,17,0.71
2013-7-13,80,72,67,72,68,65,98,89,75,30.27,30.12,15,4,15,0.18
2013-7-14,87,77,71,73,70,69,96,82,57,30.40,30.27,17,6,17,0.11
2013-7-15,87,76,58,72,70,32,99,86,37,30.45,30.32,6,1,6,18.05
2013-7-18,77,74,67,74,68,56,93,80,55,30.17,29.95,6,2,1,18.06
2013-7-19,95,86,75,78,75,71,95,72,47,30.15,30.03,44,4,44,18.45
2013-7-20,72,72,72,71,70,70,95,95,95,30.05,30.04,0,0,0,0.00
2013-7-22,78,75,73,76,74,71,99,94,88,29.94,29.88,4,1,4,0.13
2013-7-23,74,74,72,71,71,70,93,91,90,29.90,29.86,4,3,4,0.00
2013-7-26,81,76,74,69,68,68,84,77,64,30.12,30.09,8,3,8,0.00
2013-7-27,72,70,68,70,68,67,99,96,91,30.11,30.02,8,1,8,0.39
2013-7-28,85,79,69,70,68,64,95,71,57,30.09,29.99,11,2,11,0.01
2013-7-29,84,72,60,64,59,54,91,64,41,30.28,30.09,15,4,15,0.00
2013-7-30,84,70,55,66,60,55,99,73,47,30.32,30.22,11,2,11,0.00
2013-7-31,77,69,64,69,66,63,99,91,72,30.24,30.08,6,1,6,0.01
2013-8-1,88,74,65,74,67,63,99,82,52,30.09,29.94,14,2,14,0.01
2013-8-2,87,74,62,68,64,60,98,71,45,30.11,30.01,9,2,9,0.00
2013-8-3,88,73,62,70,65,60,97,79,52,30.09,30.00,8,2,8,0.00
2013-8-4,84,74,64,67,62,55,94,68,38,30.16,30.01,17,4,17,0.00
2013-8-5,82,71,60,66,61,56,90,72,50,30.19,30.08,15,3,15,0.00
2013-8-6,85,74,66,72,68,64,98,84,63,30.11,30.05,11,2,11,0.19
2013-8-7,81,73,69,74,71,69,99,93,78,30.15,30.09,10,1,10,0.02
2013-8-8,86,75,70,76,72,70,99,92,72,30.13,30.06,11,2,11,0.26
2013-8-9,90,78,68,78,73,68,99,85,61,30.10,30.03,13,2,13,0.04
2013-8-10,91,81,71,75,72,69,95,77,52,30.17,30.08,11,2,11,0.00
2013-8-11,91,77,70,75,72,68,98,86,55,30.19,30.09,11,2,11,0.54
2013-8-12,91,78,68,74,70,66,99,80,47,30.14,30.03,12,2,12,0.02
2013-8-13,83,74,69,75,70,64,99,87,73,30.16,29.88,22,3,22,0.46
2013-8-14,79,70,60,65,56,50,85,63,41,30.20,29.95,19,4,19,0.00
2013-8-15,78,65,53,59,54,49,92,68,44,30.25,30.15,11,3,11,0.00
2013-8-16,77,64,51,61,56,50,99,79,53,30.26,29.86,8,2,8,0.00
2013-8-17,72,63,55,63,59,54,99,88,58,30.31,30.24,15,2,15,0.15
2013-8-18,70,65,61,68,64,61,99,96,88,30.30,30.22,8,2,8,0.73
2013-8-19,79,69,63,72,67,62,99,93,76,30.27,30.15,7,2,7,0.07
2013-8-20,86,75,65,73,69,65,99,84,61,30.27,30.18,110,4,110,0.00
2013-8-21,85,74,66,78,71,66,99,90,67,30.29,30.17,7,1,7,0.13
2013-8-22,88,79,68,74,70,66,98,75,55,30.21,30.07,11,3,11,0.15
2013-8-23,88,73,62,73,68,61,98,86,55,30.26,30.03,21,3,21,0.15
2013-8-24,83,69,58,66,61,58,99,80,46,30.39,30.21,11,3,11,0.01
2013-8-25,81,68,57,67,60,56,99,78,44,30.47,30.34,10,2,10,0.00
2013-8-26,87,70,55,66,62,54,99,78,43,30.40,30.16,10,2,10,0.00
2013-8-27,88,76,64,73,68,62,99,78,54,30.17,30.03,11,3,11,0.00
2013-8-28,83,76,71,77,72,68,98,88,71,30.08,29.93,12,2,12,0.15
2013-8-29,88,77,70,77,72,68,98,83,57,30.12,29.93,14,3,14,0.09
2013-8-30,88,75,66,74,70,66,99,86,58,30.14,29.99,10,2,10,0.00
2013-8-31,92,75,67,75,70,64,99,86,52,30.03,29.93,25,2,25,0.26
2013-9-1,90,75,64,75,70,64,99,85,57,29.98,29.87,10,2,10,0.01
2013-9-2,91,77,66,74,69,66,99,79,49,29.97,29.87,11,2,11,0.00
2013-9-3,89,77,68,73,66,58,95,71,46,30.06,29.89,17,4,17,0.00
2013-9-4,86,70,55,66,60,55,99,73,41,30.18,30.00,8,2,8,0.00
2013-9-5,88,71,57,64,60,56,99,73,39,30.21,30.12,15,3,15,0.00
2013-9-6,80,67,57,62,58,55,99,75,46,30.29,29.99,9,2,9,0.00
2013-9-7,84,68,53,67,61,52,99,81,51,30.21,30.02,13,2,13,0.00
2013-9-8,88,73,60,71,65,59,97,78,53,30.08,29.98,11,2,11,0.00
2013-9-9,81,71,64,69,67,63,99,87,64,30.25,30.08,8,2,8,0.00
2013-9-10,92,75,64,76,70,63,99,86,52,30.30,30.07,8,1,8,0.00
2013-9-11,95,77,66,76,70,66,99,84,47,30.27,30.13,30,2,30,0.00
2013-9-12,92,78,68,74,69,62,99,75,46,30.21,29.89,13,3,13,0.00
2013-9-13,79,70,59,64,55,46,93,62,35,30.03,29.86,23,6,23,0.00
2013-9-14,75,61,48,54,50,47,98,70,43,30.21,30.02,13,3,13,0.00
2013-9-15,80,63,47,61,55,46,99,77,49,30.29,30.16,11,2,11,0.00
2013-9-16,77,66,54,64,59,50,99,79,60,30.30,30.16,12,3,12,0.00
2013-9-17,73,59,49,59,53,48,99,81,50,30.42,30.30,13,2,13,0.00
2013-9-18,72,59,47,58,53,46,99,82,57,30.37,30.23,10,2,10,0.00
2013-9-19,75,66,60,66,61,57,96,86,70,30.25,30.14,8,1,8,0.00
2013-9-20,70,66,62,68,65,61,99,97,92,30.15,30.03,7,1,7,0.00
2013-9-21,68,64,58,68,64,58,99,99,95,30.03,29.78,11,2,11,0.19
2013-9-22,76,65,54,60,56,52,99,76,49,30.01,29.84,14,4,14,0.01
2013-9-23,74,61,52,58,54,50,97,79,55,30.14,30.00,9,2,9,0.00
2013-9-24,78,64,54,61,57,52,99,81,54,30.17,30.00,8,2,8,0.00
2013-9-25,70,62,54,64,59,53,99,91,73,30.04,29.95,8,2,8,0.01
2013-9-26,79,66,56,64,59,53,99,81,46,30.14,29.98,9,2,9,0.00
2013-9-27,78,63,49,61,54,49,99,77,46,30.27,30.13,10,2,10,0.00
2013-9-28,71,61,54,58,56,51,94,82,59,30.34,30.26,9,2,9,0.00
2013-9-29,74,60,48,58,53,48,99,80,49,30.27,30.10,9,2,9,0.00
2013-9-30,78,63,51,61,56,50,99,81,48,30.16,30.05,8,2,8,0.00
2013-10-1,82,66,53,65,58,53,99,78,42,30.19,30.09,12,2,12,0.00
2013-10-2,87,67,54,65,59,53,99,78,43,30.21,30.11,11,2,11,0.00
2013-10-3,85,68,57,66,61,56,99,82,47,30.21,30.12,8,2,8,0.00
2013-10-4,88,70,58,68,63,31,99,82,46,30.21,30.11,13,2,13,0.00
2013-10-5,89,72,60,70,64,60,99,78,44,30.21,30.09,9,2,9,0.07
2013-10-6,87,71,59,69,63,59,99,80,47,30.12,29.97,17,2,17,0.00
2013-10-7,72,65,51,68,59,48,99,82,58,30.14,29.86,17,3,17,2.03
2013-10-8,70,58,50,51,47,45,87,69,45,30.39,30.13,22,4,22,0.00
2013-10-9,68,56,48,51,48,45,97,75,46,30.33,30.23,17,4,17,0.00
2013-10-10,70,57,50,61,54,46,99,89,71,30.24,30.05,17,6,17,0.22
2013-10-11,75,64,58,63,58,55,93,83,65,30.24,29.98,13,4,13,0.00
2013-10-12,68,63,59,64,60,57,98,91,82,30.20,30.05,11,4,11,0.02
2013-10-13,68,63,60,62,60,59,98,91,81,30.32,30.18,11,4,11,0.02
2013-10-14,69,62,54,62,59,54,99,92,75,30.35,30.01,124,3,124,0.19
2013-10-15,72,63,51,60,56,51,99,80,54,30.29,29.96,7,2,7,0.00
2013-10-16,72,61,50,61,56,50,99,86,65,30.15,30.00,6,2,6,0.00
2013-10-17,68,62,58,65,60,52,99,93,77,30.01,29.86,15,2,15,0.05
2013-10-18,69,57,48,52,46,41,95,67,41,30.10,29.97,22,4,22,0.00
2013-10-19,62,54,47,56,51,45,99,89,70,30.05,29.86,13,2,13,0.00
2013-10-20,66,52,39,45,38,34,90,62,35,30.16,29.98,18,4,18,0.00
2013-10-21,70,52,36,51,44,35,99,79,47,30.20,30.01,11,2,11,0.00
2013-10-22,70,58,48,53,48,47,99,74,46,30.02,29.85,15,4,15,0.00
2013-10-23,61,50,42,51,42,30,99,75,43,30.02,29.75,21,5,21,0.01
2013-10-24,50,43,34,36,32,28,79,65,49,30.22,30.01,17,4,17,0.00
2013-10-25,51,40,30,32,27,23,84,61,38,30.38,30.21,22,5,22,0.00
2013-10-26,63,44,26,36,28,21,92,58,22,30.37,30.05,11,2,11,0.00
2013-10-27,69,53,40,44,38,33,85,58,33,30.15,30.05,25,3,25,0.00
2013-10-28,68,52,38,54,46,37,96,82,52,30.30,30.15,8,2,8,0.00
2013-10-29,71,60,51,56,53,50,98,79,53,30.39,30.28,9,2,9,0.00
2013-10-30,72,61,54,62,56,50,99,83,65,30.33,30.18,11,2,11,0.07
2013-10-31,70,66,63,61,58,56,83,76,65,30.12,29.87,14,3,14,0.00
2013-11-1,81,69,57,62,56,46,91,67,31,29.83,29.68,15,4,15,0.08
2013-11-2,70,59,49,47,39,30,81,51,27,30.00,29.75,22,5,22,0.38
2013-11-3,60,49,37,39,35,30,78,59,35,30.42,30.00,29,5,29,0.00
2013-11-4,54,42,30,36,30,26,90,65,41,30.59,30.41,8,2,8,0.00
2013-11-5,52,44,32,44,35,25,86,69,53,30.62,30.48,7,2,7,0.00
2013-11-6,70,55,47,53,49,44,97,80,52,30.49,30.14,10,2,10,0.00
2013-11-7,62,51,42,55,42,26,99,74,45,30.18,30.01,27,6,27,0.00
2013-11-8,53,43,31,30,25,19,74,50,28,30.36,30.17,23,5,23,0.00
2013-11-9,61,43,27,34,27,22,86,57,28,30.37,30.14,17,3,17,0.01
2013-11-10,68,55,40,38,28,17,61,38,15,30.31,30.08,30,6,30,0.01
2013-11-11,64,48,31,33,26,20,75,47,21,30.36,30.11,17,3,17,0.00
2013-11-12,55,43,29,39,22,10,61,43,24,30.46,30.03,39,8,39,0.00
2013-11-13,47,35,27,18,12,5,60,40,21,30.54,30.43,60,6,60,0.00
2013-11-14,65,43,26,21,16,8,58,36,16,30.45,30.29,10,3,60,0.00
2013-11-15,66,47,32,50,28,17,99,52,18,30.33,30.20,8,2,8,0.35
2013-11-16,56,51,45,53,50,44,99,97,90,30.32,30.24,5,1,5,0.41
2013-11-17,60,56,53,59,55,52,99,97,92,30.26,29.90,10,2,10,0.08
2013-11-18,68,59,48,61,36,22,99,45,20,30.04,29.85,25,7,25,0.20
2013-11-19,54,44,38,29,26,24,63,50,33,30.35,30.03,23,6,23,0.00
2013-11-20,49,40,30,30,25,22,81,56,35,30.51,30.34,12,3,12,0.00
2013-11-21,50,45,40,43,38,30,85,76,64,30.54,30.41,8,2,8,0.00
2013-11-22,69,57,46,57,50,42,91,79,63,30.43,30.11,13,2,13,0.00
2013-11-23,59,47,32,51,30,10,77,54,24,30.26,30.11,29,8,29,0.00
2013-11-24,34,27,21,12,-2,-8,44,29,21,30.53,30.25,27,8,27,0.00
2013-11-25,39,27,18,14,6,1,54,41,23,30.53,30.35,8,2,8,0.00
2013-11-26,42,36,31,42,32,11,99,90,37,30.37,29.66,11,2,11,1.41
2013-11-27,45,35,26,44,26,8,99,72,47,30.17,29.60,31,8,31,0.38
2013-11-28,44,33,24,20,16,9,74,50,33,30.45,30.14,23,4,23,0.00
2013-11-29,48,35,24,26,20,15,75,56,36,30.66,30.44,15,4,15,0.00
2013-11-30,44,31,21,26,20,15,79,65,46,30.66,30.37,8,2,8,0.00
2013-12-1,60,37,21,32,25,18,86,64,26,30.37,30.05,10,2,10,0.00
2013-12-2,52,42,31,39,34,27,86,74,58,30.05,29.87,5,2,5,0.00
2013-12-3,62,46,34,47,40,32,98,81,49,30.01,29.89,6,2,6,0.00
2013-12-4,64,52,41,54,49,41,99,89,65,30.11,29.99,8,2,8,0.00
2013-12-5,67,59,52,62,57,51,99,94,84,30.13,30.01,4,1,4,0.01
2013-12-6,71,64,48,69,62,47,99,93,78,30.11,29.93,15,3,26,0.35
2013-12-7,48,43,38,48,37,32,99,81,69,30.48,30.10,15,4,15,0.40
2013-12-8,38,32,29,32,28,26,98,87,70,30.49,30.27,8,1,8,0.06
2013-12-9,54,39,31,48,37,30,99,93,80,30.27,30.06,13,2,13,0.01
2013-12-10,46,37,32,41,30,15,99,76,48,30.28,29.98,22,5,22,0.28
2013-12-11,51,37,25,25,19,13,65,48,29,30.41,30.25,27,4,27,0.00
2013-12-12,40,32,23,18,9,-1,56,39,21,30.42,30.27,21,5,27,0.00
2013-12-13,52,37,28,24,15,7,63,41,23,30.35,30.23,15,3,15,0.00
2013-12-14,39,36,34,34,32,22,98,87,56,30.30,29.77,11,2,11,0.27
2013-12-15,47,39,34,42,30,23,99,72,52,30.04,29.73,103,6,103,0.01
2013-12-16,50,39,30,34,29,23,83,70,54,30.15,30.04,12,3,12,0.00
2013-12-17,62,45,32,38,33,24,85,65,37,30.11,29.91,27,6,27,0.02
2013-12-18,49,37,27,24,18,11,71,47,25,30.26,30.01,20,4,20,0.02
2013-12-19,69,51,37,30,20,7,55,31,16,30.25,30.15,21,6,21,0.00
2013-12-20,65,50,40,39,32,25,71,51,27,30.19,30.08,8,2,8,0.00
2013-12-21,69,65,45,62,58,40,91,78,63,30.10,29.98,12,4,12,0.00
2013-12-22,66,64,62,64,62,56,97,91,76,30.11,29.96,23,3,23,0.05